FW5863 Weather Reports


Display with metric or nautical units.
time (UTC)temp
F
wind
direction
speed
MPH
gust
MPH
rain 1hr
in
rain 24hr
in
rain mn
in
humidity
%
barometer
mb
20260901024000 68 50 0.0 0.0 0.01 0.01 0.01 95 1018.9
20260901023000 68 50 0.0 0.0 0.00 0.00 0.00 95 1019.0
20260901022500 68 50 0.0 0.0 0.00 0.00 0.00 94 1018.9
20260901022000 68 50 0.0 0.0 0.00 0.00 0.00 94 1018.9
20260901021500 68 50 0.0 0.0 0.00 0.00 0.00 95 1018.9
20260901021000 68 50 0.0 0.0 0.00 0.00 0.00 95 1018.9
20260901020500 68 50 0.0 1.0 0.00 0.00 0.00 95 1018.9
20260901020001 68 50 0.0 1.0 0.00 0.00 0.00 95 1018.9
20260901015500 68 50 0.0 0.0 0.00 0.00 0.00 95 1018.9
20260901015000 68 50 0.0 0.0 0.00 0.00 0.00 95 1018.8
20260901014501 68 50 0.0 0.0 0.00 0.00 0.00 95 1018.9
20260901014000 68 50 0.0 0.0 0.00 0.00 0.00 95 1018.8
20260901013500 68 50 0.0 0.0 0.00 0.00 0.00 95 1018.8
20260901012500 68 50 0.0 0.0 0.00 0.00 0.00 94 1018.8
20260901012000 68 50 0.0 0.0 0.00 0.00 0.00 94 1018.7
20260901011500 68 50 0.0 0.0 0.00 0.00 0.00 94 1018.8
20260901010959 68 50 0.0 0.0 0.00 0.00 0.00 94 1018.8
20260901010500 67 50 0.0 0.0 0.00 0.00 0.00 94 1018.7
20260901010000 67 50 0.0 0.0 0.00 0.00 0.00 93 1018.7
20260901005500 67 50 0.0 0.0 0.00 0.00 0.00 93 1018.8
20260901005000 67 50 0.0 1.0 0.00 0.00 0.00 92 1018.7
20260901004500 68 50 0.0 1.0 0.00 0.00 0.00 92 1018.7
20260901004000 68 50 0.0 0.0 0.00 0.00 0.00 91 1018.7
20260901003500 68 50 0.0 0.0 0.00 0.00 0.00 91 1018.6
20260901003000 68 50 0.0 0.0 0.00 0.00 0.00 90 1018.5
20260901002501 68 50 0.0 0.0 0.00 0.00 0.00 90 1018.5
20260901001959 68 50 0.0 0.0 0.00 0.00 0.00 90 1018.4
20260901001501 69 50 0.0 0.0 0.00 0.00 0.00 90 1018.5
20260901001000 69 50 0.0 1.0 0.00 0.00 0.00 89 1018.6
20260901000500 69 50 0.0 1.0 0.00 0.00 0.00 89 1018.5
20260901000001 70 50 0.0 0.0 0.00 0.00 0.00 88 1018.4
20260831235459 70 50 0.0 0.0 0.00 0.00 0.00 88 1018.4
20260831235000 71 50 0.0 0.0 0.00 0.00 0.00 87 1018.4
20260831234500 71 50 0.0 0.0 0.00 0.00 0.00 87 1018.4
20260831234000 71 50 0.0 0.0 0.00 0.00 0.00 87 1018.4
20260831233500 72 50 0.0 0.0 0.00 0.00 0.00 86 1018.3
20260831233000 72 50 0.0 0.0 0.00 0.00 0.00 85 1018.4
20260831232500 72 50 0.0 0.0 0.00 0.00 0.00 85 1018.5
20260831232000 73 50 0.0 2.0 0.00 0.00 0.00 84 1018.5
20260831231500 73 50 0.0 2.0 0.00 0.00 0.00 82 1018.5
20260831231000 73 50 0.0 2.0 0.00 0.00 0.00 81 1018.6
20260831230500 74 50 1.0 3.0 0.00 0.00 0.00 81 1018.6
20260831225459 74 218 1.0 2.0 0.00 0.00 0.00 80 1018.6
20260831225000 74 218 1.0 2.0 0.00 0.00 0.00 80 1018.5
20260831224500 75 219 1.0 3.0 0.00 0.00 0.00 80 1018.6
20260831223959 75 219 2.0 5.0 0.00 0.00 0.00 79 1018.7
20260831223500 75 219 1.0 5.0 0.00 0.00 0.00 78 1018.8
20260831223000 75 215 0.0 1.0 0.00 0.00 0.00 81 1018.8
20260831221959 74 215 1.0 5.0 0.00 0.00 0.00 80 1018.8
20260831221500 74 236 2.0 5.0 0.00 0.00 0.00 81 1018.8
20260831220959 75 213 2.0 6.0 0.00 0.00 0.00 80 1018.7
20260831220000 75 230 2.0 6.0 0.00 0.00 0.00 83 1018.9
20260831215459 74 211 2.0 5.0 0.00 0.00 0.00 83 1018.9
20260831215000 74 213 1.0 5.0 0.00 0.00 0.00 85 1018.9
20260831213459 73 50 4.0 6.0 0.00 0.00 0.00 86 1019.1
20260831213000 73 50 3.0 6.0 0.00 0.00 0.00 85 1019.3
20260831212500 73 50 2.0 5.0 0.00 0.00 0.00 85 1019.2
20260831212000 73 50 2.0 5.0 0.00 0.00 0.00 86 1019.2
20260831211500 73 50 3.0 5.0 0.00 0.00 0.00 85 1019.3
20260831211000 73 50 3.0 5.0 0.00 0.00 0.00 85 1019.3
20260831210500 74 265 3.0 7.0 0.00 0.00 0.00 84 1019.3
20260831210000 74 246 3.0 7.0 0.00 0.00 0.00 84 1019.4
20260831205000 74 222 3.0 5.0 0.00 0.00 0.00 83 1019.4
20260831204000 74 50 2.0 5.0 0.00 0.00 0.00 84 1019.4
20260831203500 74 213 1.0 5.0 0.00 0.00 0.00 84 1019.4
20260831202459 74 50 0.0 3.0 0.00 0.00 0.00 87 1019.3
20260831202000 74 50 0.0 3.0 0.00 0.00 0.00 87 1019.3
20260831201500 74 50 0.0 0.0 0.00 0.00 0.00 86 1019.4
20260831200959 75 50 0.0 0.0 0.00 0.00 0.00 84 1019.6
20260831200000 75 275 0.0 0.0 0.00 0.00 0.00 81 1019.7
20260831194501 76 275 0.0 0.0 0.00 0.00 0.00 81 1020.0
20260831194000 76 275 0.0 0.0 0.00 0.00 0.00 81 1020.0
20260831193000 76 275 0.0 0.0 0.00 0.00 0.00 82 1019.9
20260831192459 75 275 0.0 0.0 0.00 0.00 0.00 82 1020.0
20260831192000 75 275 0.0 0.0 0.00 0.00 0.00 81 1020.0
20260831191500 75 275 0.0 0.0 0.00 0.00 0.00 82 1020.1
20260831191000 75 275 0.0 0.0 0.00 0.00 0.00 80 1020.2
20260831190459 75 275 0.0 0.0 0.00 0.00 0.00 80 1020.2
20260831190000 75 275 0.0 0.0 0.00 0.00 0.00 81 1020.3
20260831184959 75 275 0.0 0.0 0.00 0.00 0.00 79 1020.3
20260831183959 75 275 0.0 3.0 0.00 0.00 0.00 79 1020.4
20260831183500 75 293 1.0 3.0 0.00 0.00 0.00 78 1020.5
20260831182459 76 273 1.0 3.0 0.00 0.00 0.00 79 1020.5
20260831181959 76 235 0.0 3.0 0.00 0.00 0.00 79 1020.4
20260831181500 75 198 0.0 0.0 0.00 0.00 0.00 77 1020.4
20260831180959 76 196 0.0 0.0 0.00 0.00 0.00 78 1020.5
20260831180459 76 196 0.0 0.0 0.00 0.00 0.00 79 1020.4
20260831180000 75 196 0.0 0.0 0.00 0.00 0.00 79 1020.3
20260831175459 75 196 0.0 0.0 0.00 0.00 0.00 78 1020.4
20260831175001 75 196 0.0 0.0 0.00 0.00 0.00 79 1020.6
20260831173959 75 196 1.0 3.0 0.00 0.00 0.00 78 1020.7
20260831173459 76 196 1.0 3.0 0.00 0.00 0.00 78 1020.7
20260831173000 76 175 0.0 0.0 0.00 0.00 0.00 78 1020.7
20260831172459 76 175 0.0 0.0 0.00 0.00 0.00 77 1020.6
20260831171959 76 174 0.0 0.0 0.00 0.00 0.00 77 1020.5
20260831171501 76 234 0.0 0.0 0.00 0.00 0.00 78 1020.5
20260831171000 76 248 0.0 0.0 0.00 0.00 0.00 75 1020.6
20260831170006 77 248 0.0 1.0 0.00 0.00 0.00 78 1020.7
20260831165500 77 248 0.0 2.0 0.00 0.00 0.00 75 1020.6
20260831165000 77 248 1.0 3.0 0.00 0.00 0.00 74 1020.7
20260831164501 77 248 1.0 3.0 0.00 0.00 0.00 74 1020.9
20260831164000 77 248 1.0 3.0 0.00 0.00 0.00 75 1020.8
20260831163501 77 111 1.0 4.0 0.00 0.00 0.00 76 1020.8
20260831162500 77 117 2.0 6.0 0.00 0.00 0.00 77 1020.6
20260831161501 75 155 0.0 4.0 0.00 0.00 0.00 80 1020.7
20260831161000 75 129 0.0 4.0 0.00 0.00 0.00 77 1020.7
20260831160500 75 128 1.0 4.0 0.00 0.00 0.00 77 1020.8
20260831155500 74 93 1.0 4.0 0.00 0.00 0.00 80 1020.9
20260831155000 74 31 1.0 4.0 0.00 0.00 0.00 78 1020.9
20260831154501 74 96 1.0 4.0 0.00 0.00 0.00 80 1020.8
20260831154000 74 96 2.0 4.0 0.00 0.00 0.00 81 1020.8
20260831153001 73 99 1.0 4.0 0.00 0.00 0.00 83 1021.1
20260831152500 73 90 1.0 2.0 0.00 0.00 0.00 83 1021.2
20260831152000 73 88 0.0 3.0 0.00 0.00 0.00 83 1021.1
20260831151501 73 88 0.0 3.0 0.00 0.00 0.00 83 1021.1
20260831150500 72 88 0.0 0.0 0.00 0.00 0.00 83 1021.2
20260831150004 72 87 0.0 0.0 0.00 0.00 0.00 83 1021.2
20260831145000 72 87 0.0 0.0 0.00 0.00 0.00 83 1021.1
20260831144501 72 87 0.0 2.0 0.00 0.00 0.00 82 1021.1
20260831144000 72 87 1.0 3.0 0.00 0.00 0.00 82 1021.1
20260831143501 72 86 1.0 3.0 0.00 0.00 0.00 82 1021.2
20260831143001 72 87 0.0 3.0 0.00 0.00 0.00 82 1021.1
20260831142500 72 87 0.0 0.0 0.00 0.00 0.00 83 1021.1
20260831141501 71 88 0.0 0.0 0.00 0.00 0.00 84 1021.2
20260831141000 71 88 0.0 0.0 0.00 0.00 0.00 84 1021.3
20260831140006 71 88 0.0 0.0 0.00 0.00 0.00 85 1021.2
20260831135500 71 88 0.0 1.0 0.00 0.00 0.00 86 1021.1
20260831134501 70 50 0.0 2.0 0.00 0.00 0.00 86 1021.1
20260831134000 70 50 0.0 1.0 0.00 0.00 0.00 86 1021.2
20260831132459 70 50 0.0 1.0 0.00 0.00 0.00 86 1021.0
20260831132000 70 50 0.0 1.0 0.00 0.00 0.00 86 1020.9
20260831131501 70 50 0.0 2.0 0.00 0.00 0.00 88 1020.9
20260831131000 70 50 0.0 2.0 0.00 0.00 0.00 88 1020.9
20260831130500 70 50 0.0 2.0 0.00 0.00 0.00 88 1020.9
20260831130003 69 50 0.0 3.0 0.00 0.00 0.00 89 1020.9
20260831125500 69 50 1.0 3.0 0.00 0.00 0.00 90 1021.0
20260831125000 69 50 0.0 2.0 0.00 0.00 0.00 90 1020.9
20260831124502 69 50 0.0 2.0 0.00 0.00 0.00 92 1020.9
20260831124000 69 50 0.0 0.0 0.00 0.00 0.00 92 1020.9
20260831123500 68 50 0.0 2.0 0.00 0.00 0.00 92 1020.9
20260831123001 68 50 0.0 2.0 0.00 0.00 0.00 92 1021.0
20260831122500 68 50 0.0 0.0 0.00 0.00 0.00 93 1021.0
20260831121000 67 50 0.0 2.0 0.00 0.00 0.00 95 1021.0
20260831120500 67 50 0.0 2.0 0.00 0.00 0.00 95 1021.0
20260831120005 67 50 0.0 0.0 0.00 0.00 0.00 96 1020.9
20260831115500 66 50 0.0 0.0 0.00 0.00 0.00 96 1020.9
20260831115000 66 50 0.0 0.0 0.00 0.00 0.00 96 1021.0
20260831114501 0 0.0 0.0 0.00 0.00 0.00 1020.9
20260831114000 0 0.0 0.0 0.00 0.00 0.00 1020.8
20260831113500 0 0.0 0.0 0.00 0.00 0.00 1020.8
20260831113002 0 0.0 0.0 0.00 0.00 0.00 1020.8
20260831112500 0 0.0 0.0 0.00 0.00 0.00 1020.7
20260831111501 0 0.0 0.0 0.00 0.00 0.00 1020.6
20260831111000 0 0.0 0.0 0.00 0.00 0.00 1020.5
20260831110500 0 0.0 0.0 0.00 0.00 0.00 1020.5
20260831110004 0 0.0 0.0 0.00 0.00 0.00 1020.4
20260831105000 0 0.0 0.0 0.00 0.00 0.00 1020.3
20260831104501 0 0.0 0.0 0.00 0.00 0.00 1020.3
20260831104000 0 0.0 0.0 0.00 0.00 0.00 1020.2
20260831103500 0 0.0 0.0 0.00 0.00 0.00 1020.0
20260831103001 0 0.0 0.0 0.00 0.00 0.00 1020.0
20260831102000 0 0.0 0.0 0.00 0.00 0.00 1020.0
20260831101501 0 0.0 0.0 0.00 0.00 0.00 1020.0
20260831101000 0 0.0 0.0 0.00 0.00 0.00 1020.0
20260831100002 0 0.0 0.0 0.00 0.00 0.00 1020.0
20260831095500 0 0.0 0.0 0.00 0.00 0.00 1020.0
20260831095000 0 0.0 0.0 0.00 0.00 0.00 1020.0
20260831094000 66 50 0.0 0.0 0.00 0.00 0.00 94 1020.0
20260831093501 66 50 0.0 0.0 0.00 0.00 0.00 94 1019.9
20260831093001 66 50 0.0 0.0 0.00 0.00 0.00 94 1019.9
20260831092500 66 50 0.0 0.0 0.00 0.00 0.00 94 1019.9
20260831092000 66 50 0.0 0.0 0.00 0.00 0.00 94 1019.8
20260831091501 66 50 0.0 0.0 0.00 0.00 0.00 94 1019.7
20260831091000 66 50 0.0 0.0 0.00 0.00 0.00 94 1019.6
20260831090500 66 50 0.0 0.0 0.00 0.00 0.00 94 1019.6
20260831090002 66 50 0.0 0.0 0.00 0.00 0.00 94 1019.4
20260831085501 66 50 0.0 0.0 0.00 0.00 0.00 94 1019.4
20260831085000 66 50 0.0 0.0 0.00 0.00 0.00 94 1019.5
20260831084501 66 50 0.0 0.0 0.00 0.00 0.00 94 1019.7
20260831084000 66 50 0.0 0.0 0.00 0.00 0.00 94 1019.6
20260831083500 66 50 0.0 0.0 0.00 0.00 0.00 93 1019.7
20260831083001 66 50 0.0 0.0 0.00 0.00 0.00 93 1019.7
20260831082500 66 50 0.0 0.0 0.00 0.00 0.00 93 1019.8
20260831081000 67 50 0.0 1.0 0.00 0.00 0.00 92 1019.8
20260831080500 67 50 0.0 0.0 0.00 0.00 0.00 91 1019.8
20260831075500 67 50 0.0 0.0 0.00 0.00 0.00 91 1019.7
20260831075000 68 50 0.0 0.0 0.00 0.00 0.00 91 1019.6
20260831074501 68 50 0.0 0.0 0.00 0.00 0.00 91 1019.8
20260831074000 68 50 0.0 0.0 0.00 0.00 0.00 90 1019.8
20260831073500 68 50 0.0 1.0 0.00 0.00 0.00 90 1019.9
20260831073001 68 50 0.0 1.0 0.00 0.00 0.00 90 1019.7
20260831072000 68 50 0.0 1.0 0.00 0.00 0.00 89 1019.7
20260831071501 69 50 0.0 2.0 0.00 0.00 0.00 89 1019.7
20260831071000 69 50 0.0 2.0 0.00 0.00 0.00 88 1019.7
20260831070500 69 50 0.0 2.0 0.00 0.00 0.00 88 1019.6
20260831070002 69 50 0.0 1.0 0.00 0.00 0.00 87 1019.6
20260831064501 70 50 0.0 1.0 0.00 0.00 0.00 86 1019.7
20260831064000 70 50 0.0 1.0 0.00 0.00 0.00 86 1019.6
20260831063500 70 50 0.0 2.0 0.00 0.00 0.00 86 1019.6
20260831063001 70 50 0.0 2.0 0.00 0.00 0.00 86 1019.6
20260831062500 70 50 1.0 5.0 0.00 0.00 0.00 86 1019.5
20260831062000 70 50 1.0 5.0 0.00 0.00 0.00 85 1019.4
20260831061000 70 50 1.0 5.0 0.00 0.00 0.00 86 1019.5
20260831060500 70 50 1.0 5.0 0.00 0.00 0.00 87 1019.6
20260831060002 70 50 0.0 1.0 0.00 0.00 0.00 88 1019.7
20260831055500 70 50 0.0 2.0 0.00 0.00 0.00 88 1019.7
20260831055000 70 50 0.0 3.0 0.00 0.00 0.00 87 1019.7
20260831054501 70 50 1.0 4.0 0.00 0.00 0.00 87 1019.7
20260831054000 70 50 2.0 4.0 0.00 0.00 0.00 87 1019.6
20260831053500 70 50 1.0 4.0 0.00 0.00 0.00 86 1019.6
20260831053001 70 50 1.0 3.0 0.00 0.00 0.00 86 1019.6
20260831052500 71 50 0.0 2.0 0.00 0.00 0.00 86 1019.5
20260831052000 71 50 0.0 1.0 0.00 0.00 0.00 85 1019.5
20260831051501 71 50 0.0 1.0 0.00 0.00 0.00 85 1019.5
20260831051000 72 50 0.0 1.0 0.00 0.00 0.00 84 1019.5
20260831050500 72 50 0.0 1.0 0.00 0.00 0.00 83 1019.5
20260831045000 72 50 0.0 0.0 0.00 0.00 0.00 81 1019.5
20260831044000 73 50 0.0 2.0 0.00 0.00 0.00 81 1019.8
20260831043500 73 50 1.0 2.0 0.00 0.00 0.00 80 1019.9
20260831043002 73 50 0.0 2.0 0.00 0.00 0.00 80 1019.8
20260831042500 73 50 1.0 4.0 0.00 0.00 0.00 80 1019.8
20260831042000 73 50 2.0 6.0 0.00 0.00 0.00 81 1019.8
20260831040500 72 50 0.0 2.0 0.00 0.00 0.00 81 1019.8
20260831035500 73 50 0.0 2.0 0.00 0.00 0.00 81 1020.0
20260831034000 73 50 1.0 3.0 0.00 0.00 0.00 80 1019.9
20260831033500 73 50 2.0 4.0 0.00 0.00 0.00 80 1019.9
20260831033001 73 50 2.0 4.0 0.00 0.00 0.00 80 1019.9
20260831032500 73 50 1.0 4.0 0.00 0.00 0.00 80 1020.0
20260831032000 73 50 1.0 3.0 0.00 0.00 0.00 80 1020.0
20260831031501 73 50 1.0 3.0 0.00 0.00 0.00 80 1020.0
20260831031000 73 50 1.0 3.0 0.00 0.00 0.00 80 1019.9
20260831030500 73 50 1.0 3.0 0.00 0.00 0.00 80 1019.9
20260831030001 73 50 2.0 4.0 0.00 0.00 0.00 80 1020.0
20260831025500 73 50 1.0 4.0 0.00 0.00 0.00 80 1020.0
20260831025000 74 50 1.0 4.0 0.00 0.00 0.00 80 1019.9
20260831024501 74 50 2.0 4.0 0.00 0.00 0.00 79 1019.9